Photometre #359[Standard_N] Warsaw_UW AOT

File : 20220924_359.hum

24/09/2022,05:23:21,TEMP=6.1,BA=5.72,STAT.A=16.0,ExtBa=13.80
24/09/2022,05:27:34,TEMP=6.4,BA=5.72,STAT.A=16.0,ExtBa=13.70
24/09/2022,05:32:32,TEMP=6.8,BA=5.64,STAT.A=16.0,ExtBa=13.70
24/09/2022,05:38:27,TEMP=7.7,BA=5.64,STAT.A=16.0,ExtBa=13.60
24/09/2022,05:45:37,TEMP=8.8,BA=5.60,STAT.A=16.0,ExtBa=13.60
24/09/2022,05:54:29,TEMP=9.6,BA=5.64,STAT.A=17.0,ExtBa=13.60
24/09/2022,06:05:45,TEMP=10.7,BA=5.64,STAT.B=17.0,ExtBa=13.70
24/09/2022,06:13:52,TEMP=11.6,BA=5.60,STAT.A=16.0,ExtBa=12.90
24/09/2022,06:17:17,TEMP=11.5,BA=5.60,STAT.A=17.0,ExtBa=12.90
24/09/2022,06:24:11,TEMP=11.4,BA=5.60,STAT.A=17.0,ExtBa=13.10
24/09/2022,06:32:07,TEMP=11.9,BA=5.60,STAT.A=17.0,ExtBa=13.30
24/09/2022,06:41:18,TEMP=12.2,BA=5.60,STAT.C=17.0,ExtBa=13.40
24/09/2022,06:53:27,TEMP=13.0,BA=5.60,STAT.A=17.0,ExtBa=12.70
24/09/2022,07:05:03,TEMP=12.9,BA=5.60,STAT.A=17.0,ExtBa=13.10
24/09/2022,07:20:56,TEMP=13.4,BA=5.60,STAT.A=17.0,ExtBa=13.50
24/09/2022,07:28:53,TEMP=14.0,BA=5.60,STAT.F,ExtBa=13.40
24/09/2022,07:43:49,TEMP=15.3,BA=5.60,STAT.D=17.0,ExtBa=12.80
24/09/2022,07:58:49,TEMP=17.3,BA=5.60,STAT.D=18.0,ExtBa=13.30
24/09/2022,08:13:50,TEMP=17.3,BA=5.60,STAT.D=18.0,ExtBa=13.50
24/09/2022,08:43:49,TEMP=18.8,BA=5.60,STAT.D=18.0,ExtBa=12.90
24/09/2022,08:58:50,TEMP=20.0,BA=5.60,STAT.D=18.0,ExtBa=13.40
24/09/2022,09:13:40,TEMP=20.4,BA=5.60,STAT.b=18.0
24/09/2022,09:28:48,TEMP=21.5,BA=5.60,STAT.F,ExtBa=13.70
24/09/2022,09:43:49,TEMP=21.2,BA=5.60,STAT.D=18.0,ExtBa=13.00
24/09/2022,09:58:51,TEMP=21.9,BA=5.60,STAT.D=18.0,ExtBa=13.40
24/09/2022,10:13:51,TEMP=21.5,BA=5.60,STAT.D=18.0,ExtBa=13.60
24/09/2022,10:28:53,TEMP=21.3,BA=5.60,STAT.F,ExtBa=13.60
24/09/2022,10:43:50,TEMP=21.0,BA=5.56,STAT.D=18.0,ExtBa=13.00
24/09/2022,10:58:50,TEMP=20.9,BA=5.60,STAT.D=18.0,ExtBa=13.40
24/09/2022,11:13:57,TEMP=20.3,BA=5.60,STAT.D=18.0,ExtBa=13.60
24/09/2022,11:28:51,TEMP=20.8,BA=5.60,STAT.F,ExtBa=13.60
24/09/2022,11:43:50,TEMP=20.6,BA=5.56,STAT.D=18.0,ExtBa=12.90
24/09/2022,11:58:50,TEMP=20.2,BA=5.60,STAT.D=18.0,ExtBa=13.40
24/09/2022,12:13:49,TEMP=20.8,BA=5.60,STAT.D=18.0,ExtBa=13.60
24/09/2022,12:28:51,TEMP=21.2,BA=5.60,STAT.F,ExtBa=13.60
24/09/2022,12:43:49,TEMP=20.4,BA=5.56,STAT.D=18.0,ExtBa=12.90
24/09/2022,12:58:49,TEMP=19.7,BA=5.60,STAT.D=18.0,ExtBa=13.40
24/09/2022,13:13:49,TEMP=19.3,BA=5.60,STAT.D=18.0,ExtBa=13.60
24/09/2022,13:28:51,TEMP=18.4,BA=5.60,STAT.F,ExtBa=13.60
24/09/2022,13:40:59,TEMP=18.2,BA=5.60,STAT.A=18.0,ExtBa=12.80
24/09/2022,13:52:39,TEMP=17.3,BA=5.60,STAT.A=18.0,ExtBa=13.20
24/09/2022,14:05:34,TEMP=17.1,BA=5.60,STAT.A=18.0,ExtBa=13.50
24/09/2022,14:16:23,TEMP=17.3,BA=5.60,STAT.C=18.0,ExtBa=13.60
24/09/2022,14:29:03,TEMP=17.8,BA=5.60,STAT.A=17.0,ExtBa=12.70
24/09/2022,14:33:29,TEMP=17.7,BA=5.60,STAT.A=18.0,ExtBa=12.90
24/09/2022,14:40:24,TEMP=17.7,BA=5.60,STAT.A=18.0,ExtBa=13.10
24/09/2022,14:46:30,TEMP=17.7,BA=5.60,STAT.A=18.0,ExtBa=13.20
24/09/2022,14:51:55,TEMP=17.7,BA=5.60,STAT.B=18.0,ExtBa=13.30
24/09/2022,15:03:11,TEMP=17.3,BA=5.60,STAT.A=18.0,ExtBa=12.90
24/09/2022,15:12:03,TEMP=16.9,BA=5.60,STAT.A=18.0,ExtBa=13.10
24/09/2022,15:19:13,TEMP=16.8,BA=5.60,STAT.A=18.0,ExtBa=13.30
24/09/2022,15:25:07,TEMP=16.6,BA=5.60,STAT.A=18.0,ExtBa=13.30
24/09/2022,15:30:06,TEMP=16.6,BA=5.60,STAT.A=18.0,ExtBa=13.40
24/09/2022,15:34:20,TEMP=16.4,BA=5.60,STAT.A=18.0,ExtBa=13.40